Date,TemperatureHighF,TemperatureAvgF,TemperatureLowF,DewpointHighF,DewpointAvgF,DewpointLowF,HumidityHigh,HumidityAvg,HumidityLow,PressureMaxIn,PressureMinIn,WindSpeedMaxMPH,WindSpeedAvgMPH,GustSpeedMaxMPH,PrecipitationSumIn
2013-1-1,16,12,8,15,10,6,96,94,93,0.00,40.00,12,4,14,0.00
2013-1-2,18,6,1,17,4,-1,100,92,89,0.00,40.00,7,3,9,0.00
2013-1-3,23,8,1,23,6,-2,100,91,84,0.00,40.00,6,1,7,0.00
2013-1-4,25,13,1,10,5,-2,93,71,49,0.00,40.00,7,2,8,0.00
2013-1-5,11,8,4,6,4,0,87,82,74,0.00,40.00,3,1,4,0.00
2013-1-7,34,29,23,33,28,21,100,98,92,0.00,40.00,22,14,25,0.08
2013-1-8,36,33,30,35,33,29,100,97,91,0.00,40.00,31,13,36,0.00
2013-1-9,34,32,28,34,30,28,100,94,85,0.00,40.00,19,11,21,0.00
2013-1-10,33,23,18,31,23,16,100,98,85,0.00,40.00,33,20,38,1.85
2013-1-11,18,15,6,16,12,4,96,85,74,0.00,40.00,25,14,28,0.00
2013-1-12,10,5,-4,8,3,-7,96,90,84,0.00,40.00,11,3,13,0.00
2013-1-13,11,2,-7,9,-1,-10,96,90,86,0.00,40.00,8,2,10,0.00
2013-1-14,12,5,-3,10,2,-5,94,91,86,0.00,40.00,18,6,22,0.00
2013-1-15,17,6,3,16,4,1,95,91,87,0.00,40.00,10,3,11,0.00
2013-1-16,14,4,-3,13,2,-6,96,91,87,0.00,40.00,6,1,7,0.00
2013-1-17,28,9,-3,28,7,-6,100,92,86,0.00,40.00,3,0,3,0.00
2013-1-18,24,13,3,21,10,1,97,89,67,0.00,40.00,9,1,11,0.00
2013-1-19,27,15,3,17,12,1,97,86,62,0.00,40.00,9,1,11,0.00
2013-1-20,25,14,4,23,11,0,100,88,65,0.00,40.00,6,1,6,0.04
2013-1-21,31,18,7,17,13,5,96,82,54,0.00,40.00,4,1,5,0.00
2013-1-22,25,17,8,18,13,6,98,84,65,0.00,40.00,4,1,5,0.00
2013-1-23,31,24,12,20,15,9,88,67,50,0.00,40.00,6,2,8,0.00
2013-1-24,38,34,27,35,32,20,100,95,65,0.00,40.00,15,5,18,1.77
2013-1-25,36,34,32,35,34,32,100,100,93,0.00,40.00,15,7,17,0.40
2013-1-26,35,34,31,35,34,30,100,100,95,0.00,40.00,16,6,18,0.20
2013-1-27,32,27,20,30,23,17,99,86,70,0.00,40.00,23,15,26,0.00
2013-1-28,25,22,17,24,20,14,99,92,81,0.00,40.00,20,11,22,0.00
2013-1-29,30,27,24,26,24,22,100,88,73,0.00,40.00,25,21,30,0.00
2013-1-30,35,32,28,32,30,25,98,91,80,0.00,40.00,32,26,38,0.00
2013-1-31,38,34,29,34,32,27,97,90,83,0.00,40.00,14,10,16,0.00
2013-2-1,36,33,26,32,30,25,100,90,75,0.00,40.00,21,12,23,0.00
2013-2-2,31,21,13,29,20,12,100,98,91,0.00,40.00,6,2,7,0.00
2013-2-3,35,26,14,29,23,13,100,92,76,0.00,40.00,23,7,25,0.00
2013-2-4,40,35,28,30,27,22,89,73,50,0.00,40.00,17,9,19,0.00
2013-2-5,38,32,24,33,29,24,100,89,58,0.00,40.00,14,3,15,0.00
2013-2-6,35,29,18,30,25,15,97,84,64,0.00,40.00,17,11,19,0.00
2013-2-7,32,24,15,26,21,14,100,88,75,0.00,40.00,20,8,24,0.00
2013-2-8,37,28,23,29,25,21,96,86,64,0.00,40.00,9,3,10,0.00
2013-2-9,33,27,19,23,18,12,89,68,49,0.00,40.00,20,10,24,0.00
2013-2-10,36,26,15,16,10,4,74,52,29,0.00,40.00,17,5,21,0.00
2013-2-11,29,20,8,20,12,1,80,69,52,0.00,40.00,19,7,23,0.00
2013-2-12,34,29,21,28,23,16,84,79,72,0.00,40.00,23,16,27,0.00
2013-2-13,37,33,29,30,28,24,88,80,71,0.00,40.00,27,16,30,0.00
2013-2-14,37,31,24,27,24,21,94,75,53,0.00,40.00,21,13,25,0.00
2013-2-15,40,31,25,26,23,20,89,73,54,0.00,40.00,20,7,22,0.00
2013-2-16,36,28,17,31,25,17,100,88,75,0.00,40.00,10,4,11,0.00
2013-2-17,35,29,21,32,22,16,98,75,54,0.00,40.00,25,14,32,0.00
2013-2-18,32,22,11,22,17,9,97,79,56,0.00,40.00,22,10,25,0.00
2013-2-19,33,27,20,30,23,16,100,86,65,0.00,40.00,20,10,23,1.18
2013-2-20,31,26,21,28,22,15,100,87,69,0.00,40.00,22,12,25,0.00
2013-2-21,30,24,15,24,15,9,98,70,45,0.00,40.00,22,11,25,0.00
2013-2-22,31,27,21,28,25,20,100,92,79,0.00,40.00,17,9,22,1.85
2013-2-23,31,25,20,31,20,15,100,83,67,0.00,40.00,31,19,37,0.00
2013-2-24,29,23,14,22,15,6,87,72,48,0.00,40.00,22,11,24,0.00
2013-2-25,27,19,10,24,17,8,99,92,74,0.00,40.00,19,7,23,0.12
2013-2-26,27,22,16,20,17,13,95,82,64,0.00,40.00,22,13,26,0.00
2013-2-27,32,19,9,20,15,7,99,83,56,0.00,40.00,9,3,10,0.00
2013-2-28,38,28,15,37,24,13,100,86,53,0.00,40.00,16,6,18,0.00
2013-3-1,44,39,36,38,36,31,100,89,66,0.00,40.00,15,8,19,0.00
2013-3-2,40,33,25,37,32,25,100,95,86,0.00,40.00,9,3,11,0.51
2013-3-3,41,34,24,37,25,4,100,74,29,0.00,40.00,28,14,34,0.08
2013-3-4,32,24,15,17,11,5,80,56,41,0.00,40.00,11,6,13,0.00
2013-3-5,35,26,17,26,20,13,90,76,57,0.00,40.00,26,12,30,0.00
2013-3-6,39,34,29,35,28,15,100,77,38,0.00,40.00,29,14,33,0.00
2013-3-7,37,29,17,24,21,16,97,72,45,0.00,40.00,9,4,10,0.00
2013-3-8,41,31,22,27,22,19,91,72,50,0.00,40.00,9,4,11,0.00
2013-3-9,42,34,26,25,21,13,84,60,36,0.00,40.00,19,10,23,0.00
2013-3-10,44,36,25,26,19,10,71,51,30,0.00,40.00,20,10,24,0.00
2013-3-11,44,40,37,34,30,15,81,66,35,0.00,40.00,30,19,36,0.00
2013-3-12,51,40,31,36,31,26,86,69,53,0.00,40.00,12,4,15,0.00
2013-3-13,57,44,34,41,34,30,91,69,38,0.00,40.00,9,2,10,0.00
2013-3-14,56,45,34,44,33,26,76,63,37,0.00,40.00,8,3,10,0.00
2013-3-15,52,47,40,34,30,26,70,52,39,0.00,40.00,20,10,23,0.00
2013-3-16,47,41,30,32,28,24,83,60,42,0.00,40.00,19,9,24,0.00
2013-3-17,39,31,26,32,18,11,82,59,40,0.00,40.00,33,19,39,0.00
2013-3-18,37,31,24,24,18,12,72,58,40,0.00,40.00,27,16,32,0.00
2013-3-19,46,35,19,21,13,6,75,42,20,0.00,40.00,16,7,19,0.00
2013-3-20,42,36,32,38,31,12,100,88,32,0.00,40.00,24,11,29,1.08
2013-3-21,34,28,23,33,19,13,100,69,52,0.00,40.00,28,18,37,0.08
2013-3-22,27,23,19,23,18,13,98,81,60,0.00,40.00,25,15,32,0.00
2013-3-23,31,23,12,15,9,2,83,57,32,0.00,40.00,19,9,22,0.00
2013-3-24,35,25,10,18,12,3,87,59,29,0.00,40.00,10,3,10,0.00
2013-3-25,41,30,18,26,19,13,89,65,39,0.00,40.00,17,8,20,0.00
2013-3-26,42,35,31,38,30,23,100,81,66,0.00,40.00,10,3,11,0.28
2013-3-27,50,39,28,36,32,27,100,78,47,0.00,40.00,13,4,15,0.00
2013-3-28,57,45,32,39,32,25,92,64,29,0.00,40.00,13,4,21,0.59
2013-3-29,55,47,36,40,36,32,96,70,43,0.00,40.00,18,7,22,0.00
2013-3-30,59,48,39,37,30,-100,77,54,24,0.00,40.00,13,7,16,0.00
2013-3-31,66,48,30,38,29,24,85,54,23,0.00,40.00,9,3,12,0.00
2013-4-1,55,47,37,45,39,33,92,74,56,0.00,40.00,19,8,23,0.00
2013-4-2,60,50,38,40,36,28,91,61,33,0.00,40.00,21,8,25,0.00
2013-4-3,61,51,38,37,34,30,75,53,35,0.00,40.00,19,7,22,0.00
2013-4-4,62,48,36,44,37,33,86,68,33,0.00,40.00,18,6,22,0.04
2013-4-5,50,44,36,42,36,31,100,75,49,0.00,40.00,22,12,26,0.04
2013-4-6,46,41,35,40,36,31,97,84,69,0.00,40.00,19,8,25,1.22
2013-4-7,47,39,31,39,36,31,100,89,59,0.00,40.00,31,9,36,1.98
2013-4-8,47,37,26,35,28,19,100,75,39,0.00,40.00,24,9,29,0.00
2013-4-9,52,41,31,20,16,10,57,38,20,0.00,40.00,15,10,23,0.00
2013-4-10,53,43,30,41,27,13,84,55,35,0.00,40.00,21,10,27,0.00
2013-4-11,54,43,34,34,28,19,76,55,39,0.00,40.00,23,14,29,0.00
2013-4-12,53,42,28,28,22,13,78,47,20,0.00,40.00,15,6,21,0.00
2013-4-13,50,40,29,38,23,6,90,53,30,0.00,40.00,33,19,43,2.12
2013-4-14,37,31,24,18,13,7,68,49,29,0.00,40.00,20,10,24,0.00
2013-4-15,38,30,23,30,23,15,98,73,55,0.00,40.00,15,6,18,0.91
2013-4-16,39,30,24,31,27,22,100,89,57,0.00,40.00,17,7,21,0.32
2013-4-17,42,32,25,29,21,6,100,71,23,0.00,40.00,15,7,20,0.47
2013-4-18,47,36,20,25,17,9,79,49,29,0.00,40.00,22,11,28,0.00
2013-4-19,44,40,37,41,35,24,99,82,55,0.00,40.00,23,12,26,0.67
2013-4-20,49,42,36,38,34,29,99,76,49,0.00,40.00,25,15,29,0.00
2013-4-21,52,44,32,33,28,23,81,56,32,0.00,40.00,29,11,35,0.00
2013-4-22,47,40,33,30,20,3,78,49,16,0.00,40.00,25,12,30,0.00
2013-4-23,46,36,24,28,18,9,92,51,23,0.00,40.00,16,6,19,0.00
2013-4-24,54,41,26,23,19,16,71,44,26,0.00,40.00,13,5,15,0.00
2013-4-25,59,47,31,28,21,13,72,40,18,0.00,40.00,23,9,27,0.00
2013-4-26,65,54,38,35,27,22,63,37,24,0.00,40.00,20,8,23,0.00
2013-4-27,67,56,41,36,28,17,65,37,15,0.00,40.00,24,8,29,0.00
2013-4-28,59,54,45,33,27,24,51,36,27,0.00,40.00,29,15,34,0.00
2013-4-29,57,49,43,38,28,16,59,45,35,0.00,40.00,29,17,39,0.00
2013-4-30,44,38,30,21,15,9,56,40,30,0.00,40.00,30,17,36,0.00
2013-5-1,50,38,25,18,12,2,62,38,16,0.00,40.00,21,9,26,0.00
2013-5-2,60,44,24,21,15,9,69,35,14,0.00,40.00,13,5,17,0.00
2013-5-3,64,50,36,29,22,14,54,34,19,0.00,40.00,20,7,28,0.00
2013-5-4,58,49,38,41,34,28,85,59,36,0.00,40.00,18,7,22,0.08
2013-5-5,66,51,34,37,33,27,91,54,23,0.00,40.00,18,8,24,0.00
2013-5-6,70,56,40,42,35,30,72,48,24,0.00,40.00,21,7,25,0.00
2013-5-7,61,51,41,49,42,35,91,73,50,0.00,40.00,15,6,19,0.04
2013-5-8,66,54,42,46,42,38,93,65,38,0.00,40.00,22,6,26,0.00
2013-5-9,70,56,43,44,41,35,85,60,32,0.00,40.00,15,6,19,1.14
2013-5-10,73,58,44,46,39,-100,90,56,27,0.00,40.00,14,5,22,0.51
2013-5-11,76,62,45,47,38,-100,80,45,22,0.00,40.00,12,4,17,0.00
2013-5-12,79,66,49,48,40,36,69,42,22,0.00,40.00,17,5,23,0.00
2013-5-13,80,67,54,47,37,24,67,37,13,0.00,40.00,27,11,37,0.00
2013-5-14,70,62,53,43,38,34,54,41,28,0.00,40.00,20,13,26,0.00
2013-5-15,70,61,48,39,35,31,71,39,27,0.00,40.00,17,9,23,0.00
2013-5-16,58,51,48,45,22,-100,91,57,45,0.00,40.00,19,9,23,0.00
2013-5-17,56,50,45,46,39,-100,96,76,53,0.00,40.00,21,9,25,0.04
2013-5-18,57,50,42,42,36,29,94,63,36,0.00,40.00,22,14,28,0.00
2013-5-19,59,50,40,37,34,29,83,56,39,0.00,40.00,22,14,28,0.00
2013-5-20,65,54,38,38,33,27,79,47,26,0.00,40.00,15,5,20,0.00
2013-5-21,69,55,36,40,33,29,78,48,23,0.00,40.00,25,11,35,0.00
2013-5-22,53,43,35,35,23,4,82,49,18,0.00,40.00,26,14,30,0.00
2013-5-23,55,44,27,20,12,1,51,28,13,0.00,40.00,18,8,23,0.00
2013-5-24,63,48,29,25,20,15,66,35,18,0.00,40.00,15,7,21,0.00
2013-5-25,63,54,44,32,28,22,53,37,27,0.00,40.00,19,8,23,0.00
2013-5-26,63,52,43,43,34,26,96,52,32,0.00,40.00,24,7,30,0.08
2013-5-27,58,47,38,46,39,30,98,76,36,0.00,40.00,22,8,26,0.52
2013-5-28,52,47,44,45,43,40,99,87,65,0.00,40.00,26,10,30,0.64
2013-5-29,54,47,39,45,39,35,96,75,51,0.00,40.00,24,9,27,0.79
2013-5-30,56,47,36,38,33,30,87,61,36,0.00,40.00,24,11,31,0.00
2013-5-31,62,50,39,35,32,29,80,51,33,0.00,40.00,21,12,25,0.00
2013-6-1,71,56,38,38,33,29,76,45,25,0.00,40.00,16,6,20,0.00
2013-6-2,70,59,43,39,34,22,70,41,22,0.00,40.00,28,10,35,0.00
2013-6-3,65,55,41,35,32,28,69,43,29,0.00,40.00,21,11,26,0.00
2013-6-4,70,58,42,39,32,26,67,40,20,0.00,40.00,12,5,14,0.00
2013-6-5,75,62,44,40,35,31,74,39,20,0.00,40.00,17,7,23,0.00
2013-6-6,80,69,53,44,38,34,55,34,22,0.00,40.00,15,6,20,0.00
2013-6-7,79,69,54,47,40,33,59,36,20,0.00,40.00,26,11,31,0.00
2013-6-8,78,68,56,40,36,30,49,31,19,0.00,40.00,25,14,31,0.00
2013-6-9,83,71,53,44,38,35,55,32,20,0.00,40.00,18,8,23,0.00
2013-6-10,86,73,60,49,43,32,57,35,21,0.00,40.00,22,6,28,0.00
2013-6-11,76,67,56,46,38,32,54,36,25,0.00,40.00,17,11,21,0.00
2013-6-12,75,64,53,43,38,30,63,42,20,0.00,40.00,14,6,19,0.00
2013-6-13,62,55,47,46,37,29,86,52,29,0.00,40.00,22,11,27,0.02
2013-6-14,62,50,39,37,33,24,89,57,25,0.00,40.00,20,10,24,0.02
2013-6-15,75,56,35,34,26,17,73,39,11,0.00,40.00,15,5,18,0.00
2013-6-16,81,67,47,33,25,20,43,22,12,0.00,40.00,15,6,21,0.00
2013-6-17,81,70,49,37,30,24,44,24,14,0.00,40.00,15,5,19,0.00
2013-6-18,80,68,53,42,31,25,49,27,14,0.00,40.00,22,9,28,0.00
2013-6-19,62,52,39,45,39,35,93,63,40,0.00,40.00,24,15,30,0.03
2013-6-20,55,42,34,38,36,31,100,80,43,0.00,40.00,12,6,18,0.02
2013-6-22,65,59,48,40,34,29,68,41,28,0.00,40.00,19,11,25,0.01
2013-6-23,76,60,37,40,34,31,79,42,20,0.00,40.00,17,6,20,0.00
2013-6-24,66,59,53,52,46,38,95,66,35,0.00,40.00,22,9,27,0.29
2013-6-25,63,54,46,56,51,46,100,90,62,0.00,40.00,15,4,17,0.37
2013-6-26,76,63,53,56,52,47,99,70,35,0.00,40.00,13,5,18,0.01
2013-6-27,86,70,51,53,47,40,86,51,20,0.00,40.00,14,5,19,0.00
2013-6-28,93,78,58,49,41,35,57,31,13,0.00,40.00,14,4,18,0.00
2013-6-29,95,81,61,52,45,39,59,32,15,0.00,40.00,19,6,23,0.00
2013-6-30,95,80,64,53,45,34,57,33,13,0.00,40.00,12,4,17,0.00
2013-7-1,98,81,66,51,44,38,44,30,13,0.00,40.00,22,8,28,0.00
2013-7-2,95,83,70,54,49,41,51,32,16,0.00,40.00,15,8,19,0.00
2013-7-3,86,77,67,60,54,50,76,47,33,0.00,40.00,23,12,28,0.07
2013-7-4,86,74,62,56,51,42,80,47,25,0.00,40.00,37,9,45,0.06
2013-7-5,80,71,56,53,47,41,74,44,27,0.00,40.00,28,7,35,0.06
2013-7-6,84,70,55,49,41,37,54,36,19,0.00,40.00,18,6,26,0.00
2013-7-7,87,73,54,50,39,26,61,34,11,0.00,40.00,21,7,26,0.00
2013-7-8,85,68,55,48,38,-100,59,36,17,0.00,40.00,18,7,24,0.00
2013-7-9,88,77,56,40,33,27,44,22,12,0.00,40.00,16,7,25,0.00
2013-7-10,92,75,58,38,30,-100,35,21,12,0.00,40.00,17,6,21,0.00
2013-7-11,79,70,60,49,39,21,64,34,12,0.00,40.00,24,11,30,0.00
2013-7-12,84,66,50,49,39,16,83,47,9,0.00,40.00,22,8,27,0.00
2013-7-13,80,70,54,36,28,17,30,20,15,0.00,40.00,17,9,24,0.00
2013-7-14,86,70,53,34,29,26,37,23,12,0.00,40.00,13,5,17,0.00
2013-7-15,92,72,54,40,31,27,39,24,10,0.00,40.00,12,4,17,0.00
2013-7-18,89,77,58,33,26,22,32,17,9,0.00,40.00,14,7,19,0.00
2013-7-19,92,75,56,35,31,25,38,22,9,0.00,40.00,12,5,18,0.00
2013-7-20,92,75,64,33,27,-100,27,18,11,0.00,40.00,19,7,23,0.00
2013-7-21,89,76,59,33,21,11,28,14,6,0.00,40.00,19,10,27,0.00
2013-7-22,89,74,58,28,18,10,22,14,5,0.00,40.00,22,9,29,0.00
2013-7-23,91,72,58,29,21,12,24,16,5,0.00,40.00,11,6,13,0.00
2013-7-24,84,75,62,40,32,25,28,21,14,0.00,40.00,21,10,26,0.00
2013-7-25,90,82,68,43,36,32,38,21,13,0.00,40.00,17,6,20,0.00
2013-7-26,91,75,62,38,35,34,36,25,14,0.00,40.00,21,6,26,0.00
2013-7-27,85,79,69,40,36,33,32,22,17,0.00,40.00,17,10,22,0.00
2013-7-28,81,70,57,50,40,26,72,39,15,0.00,40.00,20,8,29,0.00
2013-7-29,83,70,56,34,28,26,38,22,13,0.00,40.00,14,6,18,0.03
2013-7-30,83,72,53,46,32,24,65,27,11,0.00,40.00,18,6,24,0.03
2013-7-31,89,74,55,39,31,25,33,22,14,0.00,40.00,19,8,28,0.00
2013-8-1,82,71,60,45,38,27,56,32,15,0.00,40.00,25,10,29,0.00
2013-8-2,73,65,52,40,33,22,61,33,15,0.00,40.00,16,11,20,0.00
2013-8-3,80,67,51,29,25,22,32,22,13,0.00,40.00,15,5,18,0.00
2013-8-4,86,73,57,31,29,26,33,21,13,0.00,40.00,14,5,18,0.00
2013-8-5,87,71,59,32,29,27,33,22,11,0.00,40.00,17,7,22,0.00
2013-8-6,86,72,59,39,31,27,33,23,12,0.00,40.00,19,7,24,0.00
2013-8-7,90,76,60,35,29,25,28,18,11,0.00,40.00,22,6,24,0.00
2013-8-8,86,76,63,43,35,31,36,24,14,0.00,40.00,20,9,24,0.01
2013-8-9,85,72,60,44,34,24,51,29,11,0.00,40.00,20,7,24,0.01
2013-8-10,86,74,59,40,29,25,36,20,11,0.00,40.00,18,10,22,0.00
2013-8-11,85,73,55,39,29,24,34,21,11,0.00,40.00,15,7,21,0.00
2013-8-12,86,71,53,35,32,30,41,26,14,0.00,40.00,13,5,18,0.00
2013-8-13,85,73,59,38,32,-100,35,23,13,0.00,40.00,13,6,17,0.00
2013-8-14,88,70,55,35,24,-100,42,23,9,0.00,40.00,17,5,23,0.00
2013-8-15,92,64,57,30,8,-100,27,16,8,0.00,40.00,14,5,20,0.00
2013-8-16,90,73,57,31,23,-100,26,17,11,0.00,40.00,16,6,19,0.00
2013-8-17,88,74,60,30,25,-100,26,18,9,0.00,40.00,17,6,21,0.00
2013-8-18,89,77,62,38,33,28,32,21,13,0.00,40.00,20,8,26,0.00
2013-8-19,88,73,62,38,27,-100,37,22,16,0.00,40.00,18,8,23,0.00
2013-8-20,89,75,60,39,35,-100,41,25,16,0.00,40.00,16,8,22,0.00
2013-8-21,80,71,58,44,40,35,52,33,24,0.00,40.00,17,6,21,0.00
2013-8-22,85,74,54,48,43,36,67,35,19,0.00,40.00,25,8,34,0.00
2013-8-23,79,70,58,49,43,32,68,41,19,0.00,40.00,18,8,22,0.00
2013-8-24,81,66,52,50,39,-100,65,41,20,0.00,40.00,21,10,27,0.00
2013-8-25,82,68,53,49,44,35,72,45,19,0.00,40.00,26,12,36,0.02
2013-8-26,81,66,49,48,44,36,84,49,22,0.00,40.00,16,6,21,0.02
2013-8-27,82,66,56,50,48,45,72,54,27,0.00,40.00,17,7,23,0.00
2013-8-28,82,77,70,52,47,44,49,34,28,0.00,40.00,14,8,19,0.02
2013-8-29,85,72,59,51,47,37,69,44,22,0.00,40.00,19,9,27,0.02
2013-8-30,83,70,55,39,32,24,46,26,12,0.00,40.00,20,7,24,0.00
2013-8-31,86,63,53,32,26,-100,39,27,10,0.00,40.00,12,4,15,0.00
2013-9-1,89,72,54,40,32,25,34,24,13,0.00,40.00,16,6,21,0.00
2013-9-4,81,73,61,61,54,48,95,54,32,0.00,40.00,17,11,20,0.15
2013-9-5,77,65,59,60,57,53,94,75,45,0.00,40.00,22,10,25,0.36
2013-9-6,76,65,57,60,48,31,92,62,20,0.00,40.00,14,6,19,0.08
2013-9-7,79,64,50,50,36,-100,72,38,20,0.00,40.00,11,4,13,0.00
2013-9-8,78,65,48,52,45,37,87,54,24,0.00,40.00,17,8,24,0.00
2013-9-9,73,62,49,45,44,41,78,52,31,0.00,40.00,15,7,20,0.00
2013-9-10,59,53,50,45,44,43,77,71,61,0.00,40.00,6,4,8,0.00
2013-9-16,80,72,58,37,35,33,45,27,19,0.00,40.00,8,4,13,0.00
2013-9-17,71,60,50,46,38,27,77,48,19,0.00,40.00,17,7,22,0.00
2013-9-18,50,46,44,44,39,32,85,74,55,0.00,40.00,21,15,26,0.02
2013-9-19,63,49,33,35,30,27,83,52,26,0.00,40.00,15,6,19,0.02
2013-9-20,74,56,39,31,27,22,69,39,15,0.00,40.00,26,12,31,0.00
2013-9-21,69,58,47,38,27,-100,59,34,17,0.00,40.00,18,7,22,0.00
2013-9-22,58,51,44,42,40,37,87,66,51,0.00,40.00,29,19,36,0.00
2013-9-23,61,56,47,35,33,32,61,42,34,0.00,40.00,22,10,25,0.00
2013-9-24,58,47,43,44,37,32,98,69,40,0.00,40.00,34,7,41,0.07
2013-9-25,43,40,37,40,38,36,100,96,86,0.00,40.00,21,12,28,0.08
2013-9-26,44,38,35,39,37,34,100,96,74,0.00,40.00,15,8,19,0.09
2013-9-27,50,41,32,36,33,30,100,78,51,0.00,40.00,21,8,26,0.02
2013-9-28,60,51,38,39,33,-100,91,55,36,0.00,40.00,14,7,20,0.00
2013-9-29,58,52,48,48,43,34,99,73,40,0.00,40.00,22,8,25,0.33
2013-9-30,56,48,43,48,43,34,100,83,59,0.00,40.00,30,12,35,0.94
2013-10-4,50,46,38,26,23,17,62,42,28,0.00,40.00,18,10,21,0.00
2013-10-5,56,45,32,29,25,-100,81,49,31,0.00,40.00,12,6,15,0.00
2013-10-6,66,47,29,32,27,22,89,53,20,0.00,40.00,13,6,15,0.00
2013-10-7,63,52,42,29,24,18,55,37,17,0.00,40.00,13,5,17,0.00
2013-10-8,49,42,35,31,29,24,79,60,38,0.00,40.00,24,14,29,0.00
2013-10-9,59,43,29,32,29,25,89,61,27,0.00,40.00,13,4,15,0.00
2013-10-10,54,46,34,35,32,29,83,59,42,0.00,40.00,21,12,25,0.00
2013-10-11,50,42,35,31,28,24,80,57,38,0.00,40.00,15,9,19,0.00
2013-10-12,54,42,32,32,26,-100,85,57,31,0.00,40.00,12,5,14,0.00
2013-10-13,52,45,40,41,36,32,91,72,52,0.00,40.00,13,6,16,0.04
2013-10-14,51,42,33,36,31,28,87,66,42,0.00,40.00,18,8,21,0.02
2013-10-15,50,42,33,37,31,28,98,69,44,0.00,40.00,18,8,21,0.02
2013-10-16,52,40,27,31,25,18,88,58,32,0.00,40.00,17,7,20,0.00
2013-10-17,54,43,33,31,26,18,68,52,32,0.00,40.00,22,9,26,0.00
2013-10-18,54,42,31,29,27,25,85,58,34,0.00,40.00,13,5,15,0.00
2013-10-19,61,47,33,27,23,-100,76,44,21,0.00,40.00,24,10,29,0.00
2013-10-20,62,52,41,32,26,20,54,37,26,0.00,40.00,16,9,18,0.00
2013-10-21,61,47,30,31,29,26,88,54,30,0.00,40.00,11,5,15,0.00
2013-10-22,65,49,35,32,30,28,78,51,25,0.00,40.00,11,3,12,0.00
2013-10-23,68,48,33,32,29,27,78,51,23,0.00,40.00,10,3,12,0.00
2013-10-24,66,50,35,30,28,25,70,45,21,0.00,40.00,9,3,13,0.00
2013-10-25,65,52,40,30,28,22,60,42,19,0.00,40.00,13,6,16,0.00
2013-10-26,64,47,35,30,25,-100,70,46,24,0.00,40.00,11,4,17,0.00
2013-10-27,61,48,34,33,26,18,76,47,19,0.00,40.00,25,8,30,0.00
2013-10-28,51,43,35,41,35,-100,100,79,55,0.00,40.00,35,18,40,0.15
2013-10-29,45,38,32,37,34,30,100,88,60,0.00,40.00,15,7,18,0.14
2013-10-30,37,34,30,34,31,28,100,89,79,0.00,40.00,19,13,23,0.00
2013-10-31,42,38,33,40,32,27,99,80,61,0.00,40.00,24,14,28,0.10
2013-11-1,49,41,32,37,33,29,93,74,57,0.00,40.00,18,7,23,0.03
2013-11-2,53,37,29,39,31,-100,100,83,43,0.00,40.00,24,8,30,0.14
2013-11-3,37,29,22,31,23,19,96,80,63,0.00,40.00,22,12,28,0.01
2013-11-4,33,27,20,26,20,13,93,74,47,0.00,40.00,20,9,26,0.00
2013-11-5,33,27,18,31,21,13,100,81,53,0.00,40.00,10,4,11,0.66
2013-11-6,45,38,30,38,34,30,100,86,65,0.00,40.00,16,8,19,0.08
2013-11-7,44,39,35,42,38,33,100,95,80,0.00,40.00,17,8,21,0.27
2013-11-8,44,38,33,38,29,23,88,72,50,0.00,40.00,24,11,28,0.01
2013-11-9,52,35,26,29,24,-100,94,70,34,0.00,40.00,6,2,8,0.00
2013-11-10,58,42,30,33,29,26,86,63,32,0.00,40.00,10,4,12,0.00
2013-11-11,56,44,35,34,30,27,79,60,41,0.00,40.00,5,2,6,0.00
2013-11-12,60,47,36,32,28,26,72,51,29,0.00,40.00,13,5,17,0.00
2013-11-13,52,44,37,40,32,30,77,64,44,0.00,40.00,22,10,26,0.00
2013-11-14,43,36,27,31,28,24,90,73,50,0.00,40.00,14,6,16,0.00
2013-11-15,38,33,29,30,26,20,93,75,52,0.00,40.00,21,11,26,0.00
2013-11-16,33,30,28,31,25,-100,100,87,66,0.00,40.00,30,13,36,0.02
2013-11-17,36,30,26,26,24,20,87,77,60,0.00,40.00,12,7,15,0.01
2013-11-18,42,30,20,31,24,18,98,81,56,0.00,40.00,11,3,13,0.00
2013-11-19,41,37,34,38,35,29,100,92,67,0.00,40.00,12,5,15,0.25
2013-11-20,40,36,31,38,36,30,100,98,85,0.00,40.00,20,8,25,0.50
2013-11-21,35,29,22,31,25,18,100,87,49,0.00,40.00,20,4,25,0.02
2013-11-22,40,26,18,21,16,11,95,67,34,0.00,40.00,11,3,13,0.00
2013-11-23,49,34,20,22,15,-100,78,53,23,0.00,40.00,9,3,10,0.00
2013-11-24,42,32,22,26,21,14,89,63,40,0.00,40.00,12,5,15,0.00
2013-11-25,50,34,25,29,25,22,90,71,44,0.00,40.00,6,2,7,0.00
2013-11-26,48,35,25,26,24,22,88,66,37,0.00,40.00,12,4,15,0.00
2013-11-27,47,36,28,25,23,22,77,61,41,0.00,40.00,12,4,15,0.00
2013-11-28,49,36,27,27,24,22,83,63,39,0.00,40.00,11,4,14,0.00
2013-11-29,47,37,27,31,26,23,84,67,47,0.00,40.00,15,5,18,0.00
2013-11-30,43,38,35,35,30,-100,95,78,65,0.00,40.00,17,11,19,0.00
2013-12-1,45,39,35,39,36,34,100,92,65,0.00,40.00,15,9,19,0.46
2013-12-2,45,37,22,37,30,13,100,77,59,0.00,40.00,26,18,33,0.33
2013-12-3,26,19,14,18,13,9,95,79,48,0.00,40.00,14,8,17,0.01
2013-12-4,14,10,6,13,5,1,94,81,69,0.00,40.00,16,8,19,0.01
2013-12-5,11,6,0,5,2,-4,93,83,62,0.00,40.00,13,4,15,0.01
2013-12-6,12,8,3,9,5,0,93,89,83,0.00,40.00,22,12,26,0.00
2013-12-7,17,12,7,15,9,-100,95,92,89,0.00,40.00,25,14,31,0.03
2013-12-8,7,4,2,5,0,-5,91,81,65,0.00,40.00,21,14,25,0.01
2013-12-9,16,10,1,4,2,-1,90,70,54,0.00,40.00,17,8,20,0.00
2013-12-10,20,10,4,10,5,1,93,78,57,0.00,40.00,20,5,24,0.00
2013-12-11,17,4,1,8,-49,-100,94,42,69,0.00,40.00,6,2,8,0.00
2013-12-12,-200,0,200,-100,-100,-100,0,0,100,0.00,40.00,8,2,9,0.00
2013-12-13,-200,0,200,-100,-100,-100,0,0,100,0.00,40.00,19,12,22,0.00
2013-12-14,-200,0,200,-100,-100,-100,0,0,100,0.00,40.00,16,8,18,0.00
2013-12-15,-200,0,200,-100,-100,-100,0,0,100,0.00,40.00,9,2,10,0.00
2013-12-16,34,3,22,22,-86,-100,91,8,55,0.00,40.00,17,7,19,0.00
2013-12-17,34,27,11,23,21,11,100,79,60,0.00,40.00,6,2,8,0.00
2013-12-18,39,31,23,24,20,17,83,65,49,0.00,40.00,16,5,17,0.00
2013-12-19,30,24,20,24,22,19,100,89,68,0.00,40.00,17,8,20,0.03
2013-12-20,23,18,13,20,13,2,98,81,41,0.00,40.00,18,6,21,0.43
2013-12-21,34,27,18,26,21,-100,99,83,59,0.00,40.00,21,12,24,0.44
2013-12-22,33,30,28,32,28,22,97,92,76,0.00,40.00,20,12,23,0.00
2013-12-23,38,35,33,34,32,30,100,90,77,0.00,40.00,23,8,27,0.10
2013-12-24,37,28,22,34,19,13,89,69,49,0.00,40.00,25,12,30,0.09
2013-12-25,30,21,13,19,14,7,89,73,57,0.00,40.00,9,3,11,0.00
2013-12-26,36,25,15,23,19,11,95,80,57,0.00,40.00,5,1,6,0.00
2013-12-27,34,26,16,23,20,14,95,78,57,0.00,40.00,9,2,12,0.00
2013-12-28,37,30,22,23,17,-100,80,62,38,0.00,40.00,16,9,19,0.00
2013-12-29,30,26,18,20,16,12,79,65,54,0.00,40.00,21,10,25,0.00
2013-12-30,28,25,19,26,18,14,94,75,58,0.00,40.00,16,5,18,0.01
2013-12-31,38,33,27,30,26,22,96,77,56,0.00,40.00,27,14,29,0.01
2014-1-1,36,29,22,29,23,19,94,80,55,0.00,40.00,14,7,16,0.00
2014-1-2,37,26,15,25,21,15,100,85,63,0.00,40.00,5,1,6,0.00